Back to catalog

STARLINK-32360

AliveCommunicationsVLEO
NORAD 61007·PAYLOAD·🇺🇸 United States

Launched Sep 5, 2024 from Cape Canaveral Space Force Station

Loading…

Next Passes (next 24 hours)

TLE

FreshSource: CelesTrak SupGP

Epoch: Sep 14, 2026, 22:11 UTC

1 61007C 24158T   26257.92479167  .00040707  00000+0  12025-2 0  2577
2 61007  53.1583 247.5982 0001508  83.5539 348.2162 15.34375521    18

Track STARLINK-32360 in real time with AllMySat

Download on the App Store